Weather History for Sanford, NC

Change the Weather History Date:

Saturday, March 16, 2013

  Actual Average (KRDU) Record (KRDU)
Temperature  
Mean Temperature 60 °F 52 °F  
Max Temperature 79 °F 63 °F 86 °F (1945)
Min Temperature 40 °F 40 °F 20 °F (1970)
Degree Days  
Heating Degree Days 6 14  
Month to date heating degree days 252  
Since 1 July heating degree days 2824  
Cooling Degree Days 0 0  
Month to date cooling degree days 0  
Year to date cooling degree days 1  
Growing Degree Days 10 (Base 50)    
Moisture  
Dew Point 41 °F    
Average Humidity 47    
Maximum Humidity 78    
Minimum Humidity 27    
Precipitation  
Precipitation 0.00 in 0.14 in 2.14 in (2007)
Month to date precipitation 2.16  
Year to date precipitation 8.89  
Snow  
Snow 0.00 in 0.00 in T in (1998)
Month to date snowfall 0.4  
Since 1 July snowfall 5.9  
Snow Depth -    
Sea Level Pressure  
Sea Level Pressure 29.80 in    
Wind  
Wind Speed 6 mph (SW)    
Max Wind Speed 21 mph    
Max Gust Speed 26 mph    
Visibility 10 miles    
Events      
T = Trace of Precipitation, MM = Missing Value Source: NWS Daily Summary

Daily Weather History Graph

Daily Weather History Graph

Search for Another Location

Airport:

Trip Planner

Search our weather history database for the weather conditions in past years. The results will help you decide how hot, cold, wet, or windy it might be!

Date:

Astronomy

Mar. 16, 2013 Rise Set
Actual Time 7:25 AM EDT 7:24 PM EDT
Civil Twilight 6:59 AM EDT 7:50 PM EDT
Nautical Twilight 6:30 AM EDT 8:20 PM EDT
Astronomical Twilight 6:00 AM EDT 8:49 PM EDT
Moon 10:04 AM EDT (3/16) No Moon Set
Length of Visible Light 12h 50m
Length of Day
11h 59m
Waxing Crescent, 23% of the Moon is Illuminated
Mar 16
Waxing Crescent
Mar 19
First Quarter
Mar 27
Full
Apr 3
Last Quarter
Apr 10
New

Hourly Weather History & Observations

Time (EDT) Temp. Dew Point Humidity Pressure Visibility Wind Dir Wind Speed Gust Speed Precip Events Conditions
12:15 AM 40.3 °F 34.0 °F 78% 29.90 in 10.0 mi Calm Calm - N/A   Clear
12:35 AM 41.9 °F 34.3 °F 75% 29.90 in 10.0 mi Calm Calm - N/A   Clear
12:55 AM 41.4 °F 34.2 °F 76% 29.89 in 10.0 mi Calm Calm - N/A   Clear
1:15 AM 43.5 °F 35.1 °F 72% 29.89 in 10.0 mi Calm Calm - N/A   Clear
1:35 AM 43.0 °F 34.7 °F 73% 29.89 in 10.0 mi Calm Calm - N/A   Clear
2:15 AM 44.1 °F 36.0 °F 73% 29.88 in 10.0 mi Calm Calm - N/A   Clear
2:35 AM 42.8 °F 35.8 °F 76% 29.87 in 10.0 mi Calm Calm - N/A   Clear
2:55 AM 41.7 °F 35.4 °F 78% 29.87 in 10.0 mi Calm Calm - N/A   Clear
3:15 AM 44.1 °F 36.7 °F 75% 29.86 in 10.0 mi Calm Calm - N/A   Scattered Clouds
3:35 AM 47.8 °F 37.2 °F 67% 29.86 in 10.0 mi South 4.6 mph - N/A   Clear
4:15 AM 49.1 °F 37.9 °F 65% 29.84 in 10.0 mi SSW 4.6 mph - N/A   Clear
4:35 AM 49.5 °F 38.3 °F 65% 29.84 in 10.0 mi SSW 4.6 mph - N/A   Clear
4:55 AM 50.0 °F 37.9 °F 63% 29.84 in 10.0 mi SSW 4.6 mph - N/A   Clear
5:35 AM 49.1 °F 38.7 °F 67% 29.83 in 10.0 mi South 3.5 mph - N/A   Scattered Clouds
6:15 AM 50.9 °F 40.1 °F 67% 29.83 in 10.0 mi South 3.5 mph - N/A   Clear
6:55 AM 54.7 °F 41.2 °F 60% 29.83 in 10.0 mi SW 5.8 mph - N/A   Clear
7:15 AM 56.3 °F 41.2 °F 57% 29.84 in 10.0 mi SSW 5.8 mph - N/A   Scattered Clouds
7:35 AM 56.8 °F 41.2 °F 56% 29.85 in 10.0 mi SW 6.9 mph - N/A   Scattered Clouds
8:15 AM 57.2 °F 41.9 °F 57% 29.85 in 10.0 mi SSW 5.8 mph - N/A   Clear
8:35 AM 57.2 °F 42.6 °F 58% 29.84 in 10.0 mi SSW 6.9 mph - N/A   Mostly Cloudy
9:15 AM 58.6 °F 42.3 °F 55% 29.84 in 10.0 mi SW 8.1 mph - N/A   Mostly Cloudy
9:35 AM 59.0 °F 42.6 °F 55% 29.84 in 10.0 mi SW 9.2 mph - N/A   Mostly Cloudy
9:55 AM 59.7 °F 43.2 °F 54% 29.84 in 10.0 mi SSW 9.2 mph - N/A   Overcast
10:15 AM 60.8 °F 43.0 °F 52% 29.83 in 10.0 mi SW 9.2 mph - N/A   Overcast
10:35 AM 61.0 °F 44.4 °F 54% 29.84 in 10.0 mi SW 8.1 mph - N/A   Mostly Cloudy
10:55 AM 61.2 °F 44.1 °F 53% 29.83 in 10.0 mi SSW 6.9 mph - N/A   Mostly Cloudy
11:15 AM 63.5 °F 44.1 °F 49% 29.83 in 10.0 mi SSW 6.9 mph - N/A   Mostly Cloudy
11:35 AM 64.9 °F 43.5 °F 46% 29.82 in 10.0 mi SW 11.5 mph - N/A   Mostly Cloudy
11:55 AM 65.8 °F 43.3 °F 44% 29.81 in 10.0 mi SW 13.8 mph 18.4 mph N/A   Scattered Clouds
12:15 PM 67.8 °F 43.3 °F 41% 29.80 in 10.0 mi SSW 10.4 mph 19.6 mph N/A   Clear
12:35 PM 70.2 °F 42.6 °F 37% 29.80 in 10.0 mi SW 15.0 mph 21.9 mph N/A   Clear
12:55 PM 72.1 °F 42.8 °F 35% 29.79 in 10.0 mi SW 17.3 mph 21.9 mph N/A   Clear
1:15 PM 73.4 °F 43.3 °F 34% 29.78 in 10.0 mi SW 10.4 mph 21.9 mph N/A   Clear
1:35 PM 74.7 °F 43.3 °F 33% 29.77 in 10.0 mi SW 10.4 mph 18.4 mph N/A   Clear
1:55 PM 75.4 °F 42.8 °F 31% 29.76 in 10.0 mi SW 20.7 mph 26.5 mph N/A   Clear
2:15 PM 77.0 °F 43.2 °F 30% 29.75 in 10.0 mi SSW 12.7 mph 19.6 mph N/A   Clear
2:35 PM 77.7 °F 42.8 °F 29% 29.74 in 10.0 mi SSW 17.3 mph 24.2 mph N/A   Clear
2:55 PM 78.1 °F 42.4 °F 28% 29.73 in 10.0 mi SW 15.0 mph 24.2 mph N/A   Clear
3:15 PM 78.3 °F 42.4 °F 28% 29.72 in 10.0 mi SSW 13.8 mph 24.2 mph N/A   Clear
3:35 PM 79.0 °F 42.4 °F 27% 29.71 in 10.0 mi SW 15.0 mph 24.2 mph N/A   Clear
3:55 PM 79.0 °F 42.3 °F 27% 29.71 in 10.0 mi SSW 18.4 mph 23.0 mph N/A   Clear
4:15 PM 79.2 °F 42.4 °F 27% 29.70 in 10.0 mi SW 11.5 mph 25.3 mph N/A   Clear
4:35 PM 77.7 °F 42.8 °F 29% 29.70 in 10.0 mi SW 17.3 mph 21.9 mph N/A   Clear
4:55 PM 78.1 °F 42.8 °F 28% 29.70 in 10.0 mi SW 12.7 mph 19.6 mph N/A   Clear
5:15 PM 78.8 °F 42.4 °F 27% 29.69 in 10.0 mi WSW 11.5 mph 21.9 mph N/A   Clear
5:35 PM 78.3 °F 42.1 °F 27% 29.68 in 10.0 mi SSW 13.8 mph 19.6 mph N/A   Clear
6:15 PM 77.9 °F 41.2 °F 27% 29.68 in 10.0 mi SW 8.1 mph 19.6 mph N/A   Clear
6:35 PM 77.0 °F 41.7 °F 28% 29.67 in 10.0 mi SSW 12.7 mph 18.4 mph N/A   Clear
6:55 PM 76.3 °F 41.7 °F 29% 29.68 in 10.0 mi SW 9.2 mph 20.7 mph N/A   Clear
7:15 PM 75.7 °F 41.9 °F 30% 29.69 in 10.0 mi SW 10.4 mph 17.3 mph N/A   Clear
7:35 PM 74.7 °F 42.4 °F 31% 29.70 in 10.0 mi SW 12.7 mph 18.4 mph N/A   Clear
7:55 PM 74.5 °F 41.5 °F 31% 29.71 in 10.0 mi SW 13.8 mph 20.7 mph N/A   Clear
8:15 PM 73.8 °F 40.8 °F 30% 29.72 in 10.0 mi SW 15.0 mph 20.7 mph N/A   Clear
8:35 PM 72.9 °F 40.3 °F 31% 29.73 in 10.0 mi SW 10.4 mph - N/A   Clear
9:15 PM 72.3 °F 39.2 °F 30% 29.77 in 10.0 mi WSW 10.4 mph - N/A   Scattered Clouds
9:35 PM 72.0 °F 39.0 °F 30% 29.80 in 10.0 mi West 5.8 mph - N/A   Mostly Cloudy
10:15 PM 70.2 °F 39.6 °F 33% 29.82 in 10.0 mi Calm Calm - N/A   Overcast
10:35 PM 65.1 °F 42.4 °F 44% 29.83 in 10.0 mi Calm Calm - N/A   Scattered Clouds
10:55 PM 62.4 °F 43.3 °F 50% 29.83 in 10.0 mi Calm Calm - N/A   Mostly Cloudy
11:15 PM 62.1 °F 43.5 °F 51% 29.84 in 10.0 mi Calm Calm - N/A   Mostly Cloudy
11:35 PM 59.2 °F 44.2 °F 58% 29.85 in 10.0 mi Calm Calm - N/A   Scattered Clouds
11:55 PM 57.6 °F 44.6 °F 62% 29.84 in 10.0 mi South 3.5 mph - N/A   Clear